Regional Weather Roundup
Issued by NWS Northern Indiana

Home | Current Version | Previous Version | Text Only | Print | Product List | Glossary Off
Versions: 1 2 3 4 5 6 7 8 9 10 11 12 13 14 15 16 17 18 19 20 21 22 23 24 25 26 27 28 29 30 31 32 33 34 35 36 37 38 39 40 41 42 43 44 45 46 47 48 49 50

000
ASUS43 KIWX 012110
RWRIWX

KIWX WEATHER ROUNDUP
NATIONAL WEATHER SERVICE NORTHERN INDIANA
500 PM EDT TUE SEP 01 2015

NOTE: "FAIR" INDICATES FEW OR NO CLOUDS BELOW 12,000 FEET WITH NO
SIGNIFICANT WEATHER AND/OR OBSTRUCTIONS TO VISIBILITY.

* THESE STATIONS ARE NOT UNDER NWS QUALITY CONTROL. THEY ALSO MAY NOT
  REPORT WEATHER SUCH AS PRECIPITATION OR FOG.

INZ001>027-012200-
NORTHERN INDIANA

CITY           SKY/WX    TMP DP  RH WIND       PRES   REMARKS
GARY*          MOSUNNY   88  68  51 SW10      30.02F
VALPARAISO     SUNNY     86  70  58 SW8       30.04F
MICHIGAN CITY* SUNNY     84  68  58 SW10      30.04S
LAPORTE*       MOSUNNY   86  73  63 SW9       30.05S
KNOX*          SUNNY     84  68  58 S9        30.03F
SOUTH BEND     MOSUNNY   85  72  65 SW12      30.04F
ELKHART*       SUNNY     82  75  78 CALM      30.05F
GOSHEN         MOSUNNY   85  69  58 SW7       30.04F
MONTICELLO*    SUNNY     85  69  58 SW7       30.04F
LOGANSPORT*    SUNNY     86  59  39 S7        30.06F
ROCHESTER*     SUNNY     90  68  48 S7        30.06S
WARSAW*        SUNNY     86  70  58 SW6       30.05F
ANGOLA*        MOSUNNY   84  72  65 CALM      30.06S
FORT WAYNE     MOSUNNY   84  71  65 SW10      30.07F
HUNTINGTON*    MOSUNNY   82  65  56 SW8       30.07S
PERU/GRISSOM   SUNNY     86  66  50 SW8       30.05F
MARION*        MOSUNNY   80  62  53 S9        30.08F

$$
INZ028>050-012200-
CENTRAL INDIANA

CITY           SKY/WX    TMP DP  RH WIND       PRES   REMARKS
LAFAYETTE      MOSUNNY   84  65  52 SW8       30.06S
KOKOMO*        SUNNY     88  64  45 SW9       30.06F
MUNCIE*        CLOUDY    79  67  66 SW6       30.09F
INDIANAPOLIS   PTSUNNY   85  64  49 S10       30.08F

$$
MIZ043>046-050>051-056>058-064>065-071>073-077>080-012200-
SOUTHWEST LOWER MICHIGAN

CITY           SKY/WX    TMP DP  RH WIND       PRES   REMARKS
BATTLE CREEK   SUNNY     88  68  51 SW7       30.04F
BENTON HARBOR  MOSUNNY   84  70  62 W10       30.02F
COLDWATER*     SUNNY     84  67  56 SW7       30.05F
HILLSDALE*     SUNNY     87  65  48 CALM      30.06F
HOLLAND        SUNNY     86  73  65 SW13      30.02F
GRAND RAPIDS   MOSUNNY   87  71  58 SW10      30.01F
KALAMAZOO      PTSUNNY   88  71  57 SW12      30.03F
STURGIS*       LGT RAIN  73  64  73 W7        30.05S
THREE RIVERS*  FAIR      83  69  61 S10       30.06R

$$
OHZ001>008-015>018-024>025-012200-
NORTHWEST OHIO

CITY           SKY/WX    TMP DP  RH WIND       PRES   REMARKS
WAUSEON*       FAIR      88  68  51 SW6       30.05F
DEFIANCE       SUNNY     88  67  49 VRB3      30.05F
FINDLAY        MOSUNNY   86  67  52 SW6       30.05F
TOLEDO EXPRESS MOSUNNY   87  66  49 SW7       30.04F
TOLEDO METCALF MOSUNNY   89  64  43 SW10      30.05F
LIMA           MOSUNNY   83  67  58 S6        30.08S

$$
AND FOR LAKE MICHIGAN COASTAL AND OPEN LAKE BUOY OBSERVATIONS

STATION/POSITION TEMP    WIND        PRES    VSBY  WAVE
                 AIR SEA DIR/SP/G                  HT/PER
                 (F)     (DEG/KT/KT) (MB)    (MI)  (FT/S)
CALUMET HARBOR    85     180/  7/ 13   N/A
SAINT JOSEPH      78     180/  8/  9 1016.9F
SOUTH LAKE BUOY   74 70  180/ 12/ 14 1015.2F         1/ 3
4 MI NW BRIDGMAN  75 73  280/  6/  6   N/A           1/ 3
MICHIGAN CITY     78 73  210/  4/  6   N/A           1

$$
&&


USA.gov is the U.S. government's official web portal to all federal, state and local government web resources and services.